When you browse on this site, cookies collect data to enhance your experience and personalize the content and advertising you see.
Visit our Privacy Policy to learn more. By continuing to use the site, you agree to this use of cookies and data.
  • In Hungary
  • List of Countries
  • For 7 days
  • Water Temperature
  • Weather Map
  • News
  • Weather Widgets
  • user-avatar
    Login

    Hourly Weather Scheberiha

    Today, 21 January, Tuesday

    Time Temperature Precipitation Wind Pressure Humidity
    00:00 -2°C° 0.1 mm 5 mps 744 mmHg 90%
    01:00 -1°C° 0.1 mm 5 mps 743 mmHg 91%
    02:00 -1°C° 0.1 mm 5 mps 742 mmHg 93%
    03:00 -1°C° 0.3 mm 5 mps 741 mmHg 92%
    04:00 -1°C° 0.3 mm 6 mps 740 mmHg 91%
    05:00 -1°C° 0.3 mm 6 mps 739 mmHg 90%
    06:00 +1°C° 0.1 mm 6 mps 739 mmHg 91%
    07:00 +1°C° 0.1 mm 6 mps 738 mmHg 91%
    08:00 +1°C° 0.1 mm 6 mps 738 mmHg 92%
    09:00 +2°C° 0.3 mm 6 mps 737 mmHg 91%
    10:00 +2°C° 0.3 mm 6 mps 737 mmHg 91%
    11:00 +2°C° 0.3 mm 6 mps 736 mmHg 90%
    12:00 +3°C° 0.6 mm 6 mps 735 mmHg 91%
    13:00 +3°C° 0.6 mm 5 mps 735 mmHg 92%
    14:00 +3°C° 0.6 mm 5 mps 734 mmHg 93%
    15:00 +3°C° 1.7 mm 5 mps 733 mmHg 92%
    16:00 +3°C° 1.7 mm 5 mps 732 mmHg 92%
    17:00 +2°C° 1.7 mm 5 mps 731 mmHg 92%
    18:00 +1°C° 0.1 mm 5 mps 732 mmHg 86%
    19:00 -1°C° 0.1 mm 6 mps 733 mmHg 79%
    20:00 -2°C° 0.1 mm 6 mps 733 mmHg 73%
    21:00 -2°C° 0 mm 6 mps 733 mmHg 74%
    22:00 -3°C° 0 mm 6 mps 733 mmHg 74%
    23:00 -3°C° 0 mm 6 mps 733 mmHg 75%

    Tomorrow, 22 January, Wednesday

    Time Temperature Precipitation Wind Pressure Humidity
    00:00 -3°C° 0 mm 6 mps 733 mmHg 77%
    01:00 -4°C° 0 mm 6 mps 733 mmHg 79%
    02:00 -4°C° 0 mm 6 mps 733 mmHg 81%
    03:00 -4°C° 0.2 mm 6 mps 732 mmHg 84%
    04:00 -4°C° 0.2 mm 6 mps 731 mmHg 86%
    05:00 -4°C° 0.2 mm 6 mps 730 mmHg 89%
    06:00 -4°C° 0.5 mm 6 mps 730 mmHg 91%
    07:00 -4°C° 0.5 mm 5 mps 729 mmHg 92%
    08:00 -4°C° 0.5 mm 5 mps 728 mmHg 94%
    09:00 -4°C° 0.5 mm 5 mps 728 mmHg 90%
    10:00 -4°C° 0.5 mm 6 mps 728 mmHg 85%
    11:00 -4°C° 0.5 mm 6 mps 728 mmHg 81%
    12:00 -4°C° 0.1 mm 6 mps 728 mmHg 78%
    13:00 -4°C° 0.1 mm 6 mps 728 mmHg 74%
    14:00 -4°C° 0.1 mm 5 mps 728 mmHg 71%
    15:00 -4°C° 0.1 mm 5 mps 729 mmHg 75%
    16:00 -5°C° 0.1 mm 5 mps 729 mmHg 79%
    17:00 -5°C° 0.1 mm 5 mps 730 mmHg 83%
    18:00 -5°C° 0.1 mm 5 mps 730 mmHg 86%
    19:00 -5°C° 0.1 mm 5 mps 731 mmHg 88%
    20:00 -6°C° 0.1 mm 5 mps 731 mmHg 90%
    21:00 -6°C° 0.1 mm 5 mps 732 mmHg 85%
    22:00 -6°C° 0.1 mm 6 mps 732 mmHg 80%
    23:00 -8°C° 0.1 mm 6 mps 733 mmHg 76%

    Day after tomorrow, 23 January, Thursday

    Time Temperature Precipitation Wind Pressure Humidity
    00:00 -8°C° 0 mm 6 mps 734 mmHg 75%
    01:00 -9°C° 0 mm 6 mps 735 mmHg 75%
    02:00 -9°C° 0 mm 6 mps 736 mmHg 74%
    03:00 -9°C° 0 mm 6 mps 736 mmHg 71%
    04:00 -8°C° 0 mm 5 mps 736 mmHg 67%
    05:00 -10°C° 0 mm 5 mps 737 mmHg 63%
    06:00 -8°C° 0 mm 5 mps 737 mmHg 62%
    07:00 -8°C° 0 mm 5 mps 737 mmHg 61%
    08:00 -8°C° 0 mm 5 mps 737 mmHg 60%
    09:00 -8°C° 0 mm 6 mps 738 mmHg 59%
    10:00 -8°C° 0 mm 6 mps 738 mmHg 59%
    11:00 -7°C° 0 mm 7 mps 739 mmHg 58%
    12:00 -6°C° 0 mm 6 mps 739 mmHg 57%
    13:00 -6°C° 0 mm 6 mps 740 mmHg 56%
    14:00 -6°C° 0 mm 5 mps 740 mmHg 55%
    15:00 -7°C° 0 mm 5 mps 740 mmHg 59%
    16:00 -7°C° 0 mm 4 mps 741 mmHg 62%
    17:00 -7°C° 0 mm 3 mps 741 mmHg 66%
    18:00 -7°C° 0 mm 3 mps 741 mmHg 67%
    19:00 -7°C° 0 mm 3 mps 741 mmHg 67%
    20:00 -6°C° 0 mm 2 mps 742 mmHg 68%
    21:00 -6°C° 0 mm 2 mps 741 mmHg 70%
    22:00 -6°C° 0 mm 2 mps 741 mmHg 73%
    23:00 -6°C° 0 mm 3 mps 741 mmHg 75%

    24 January, Friday

    Time Temperature Precipitation Wind Pressure Humidity
    00:00 -6°C° 0.1 mm 3 mps 740 mmHg 80%
    01:00 -5°C° 0.1 mm 3 mps 740 mmHg 86%
    02:00 -5°C° 0.1 mm 4 mps 739 mmHg 91%
    03:00 -5°C° 0.4 mm 4 mps 738 mmHg 92%
    04:00 -5°C° 0.4 mm 5 mps 737 mmHg 93%
    05:00 -5°C° 0.4 mm 5 mps 737 mmHg 94%
    06:00 -5°C° 0.5 mm 5 mps 736 mmHg 94%
    07:00 -3°C° 0.5 mm 4 mps 736 mmHg 95%
    08:00 -3°C° 0.5 mm 4 mps 735 mmHg 95%
    09:00 -2°C° 0 mm 4 mps 735 mmHg 95%
    10:00 -1°C° 0 mm 4 mps 735 mmHg 95%
    11:00 0°C° 0 mm 4 mps 735 mmHg 94%
    12:00 +1°C° 0 mm 4 mps 735 mmHg 94%
    13:00 +1°C° 0 mm 4 mps 735 mmHg 93%
    14:00 +1°C° 0 mm 5 mps 735 mmHg 92%
    15:00 +1°C° 0 mm 4 mps 735 mmHg 93%
    16:00 +1°C° 0 mm 4 mps 735 mmHg 93%
    17:00 0°C° 0 mm 4 mps 735 mmHg 94%
    18:00 +1°C° 0 mm 3 mps 735 mmHg 95%
    19:00 +1°C° 0 mm 3 mps 736 mmHg 96%
    20:00 +2°C° 0 mm 2 mps 736 mmHg 97%
    21:00 +2°C° 0.1 mm 2 mps 736 mmHg 97%
    22:00 +1°C° 0.1 mm 3 mps 735 mmHg 97%
    23:00 +1°C° 0.1 mm 3 mps 735 mmHg 97%

    25 January, Saturday

    Time Temperature Precipitation Wind Pressure Humidity
    00:00 +1°C° 0.3 mm 3 mps 735 mmHg 97%
    01:00 +1°C° 0.3 mm 3 mps 735 mmHg 97%
    02:00 +1°C° 0.3 mm 3 mps 735 mmHg 97%
    03:00 0°C° 0.4 mm 4 mps 734 mmHg 97%
    04:00 0°C° 0.4 mm 4 mps 734 mmHg 96%
    05:00 0°C° 0.4 mm 4 mps 734 mmHg 96%
    06:00 +1°C° 0.4 mm 4 mps 734 mmHg 96%
    07:00 +1°C° 0.4 mm 4 mps 734 mmHg 96%
    08:00 +1°C° 0.4 mm 4 mps 734 mmHg 96%
    09:00 +1°C° 0.2 mm 4 mps 734 mmHg 96%
    10:00 +2°C° 0.2 mm 3 mps 735 mmHg 96%
    11:00 +2°C° 0.2 mm 3 mps 735 mmHg 96%
    12:00 +2°C° 0.1 mm 3 mps 735 mmHg 96%
    13:00 +2°C° 0.1 mm 3 mps 736 mmHg 95%
    14:00 +2°C° 0.1 mm 3 mps 736 mmHg 95%
    15:00 +2°C° 0 mm 2 mps 736 mmHg 95%
    16:00 +1°C° 0 mm 2 mps 736 mmHg 96%
    17:00 +1°C° 0 mm 2 mps 737 mmHg 96%
    18:00 -1°C° 0 mm 2 mps 737 mmHg 96%
    19:00 -1°C° 0 mm 2 mps 737 mmHg 97%
    20:00 -1°C° 0 mm 2 mps 738 mmHg 97%
    21:00 -1°C° 0 mm 2 mps 738 mmHg 97%
    22:00 0°C° 0 mm 1 mps 738 mmHg 97%
    23:00 0°C° 0 mm 1 mps 738 mmHg 97%

    26 January, Sunday

    Time Temperature Precipitation Wind Pressure Humidity
    00:00 -1°C° 0 mm 2 mps 738 mmHg 97%
    01:00 -1°C° 0 mm 2 mps 738 mmHg 97%
    02:00 -1°C° 0 mm 2 mps 739 mmHg 97%
    03:00 -1°C° 0 mm 2 mps 738 mmHg 97%
    04:00 -1°C° 0 mm 2 mps 738 mmHg 97%
    05:00 +1°C° 0 mm 2 mps 738 mmHg 97%
    06:00 +1°C° 0.1 mm 2 mps 738 mmHg 97%
    07:00 +1°C° 0.1 mm 2 mps 738 mmHg 97%
    08:00 +1°C° 0.1 mm 2 mps 739 mmHg 97%
    09:00 +1°C° 0 mm 3 mps 739 mmHg 96%
    10:00 +1°C° 0 mm 3 mps 739 mmHg 95%
    11:00 +1°C° 0 mm 3 mps 739 mmHg 94%
    12:00 +1°C° 0 mm 3 mps 738 mmHg 92%
    13:00 0°C° 0 mm 3 mps 738 mmHg 91%
    14:00 -1°C° 0 mm 4 mps 738 mmHg 90%
    15:00 -1°C° 0 mm 4 mps 738 mmHg 89%
    16:00 -1°C° 0 mm 4 mps 738 mmHg 88%
    17:00 -1°C° 0 mm 4 mps 737 mmHg 88%
    18:00 -1°C° 0 mm 4 mps 737 mmHg 89%
    19:00 -1°C° 0 mm 4 mps 737 mmHg 91%
    20:00 -1°C° 0 mm 4 mps 736 mmHg 93%
    21:00 -1°C° 0 mm 4 mps 736 mmHg 93%
    22:00 -1°C° 0 mm 5 mps 735 mmHg 94%
    23:00 -1°C° 0 mm 5 mps 735 mmHg 95%
    Show more